TimeEDT,TemperatureF,Dew PointF,Humidity,Sea Level PressureIn,VisibilityMPH,Wind Direction,Wind SpeedMPH,Gust SpeedMPH,PrecipitationIn,Events,Conditions,WindDirDegrees,DateUTC
12:53 AM,57.0,55.9,96,30.04,10.0,Calm,Calm,-,N/A,,Partly Cloudy,0,2012-10-26 04:53:00
1:53 AM,59.0,57.0,93,30.03,10.0,Calm,Calm,-,N/A,,Mostly Cloudy,0,2012-10-26 05:53:00
2:53 AM,57.9,55.9,93,30.03,10.0,Calm,Calm,-,N/A,,Scattered Clouds,0,2012-10-26 06:53:00
3:53 AM,57.9,57.0,97,30.04,10.0,Calm,Calm,-,N/A,,Mostly Cloudy,0,2012-10-26 07:53:00
4:53 AM,57.0,55.9,96,30.03,10.0,Calm,Calm,-,N/A,,Mostly Cloudy,0,2012-10-26 08:53:00
5:53 AM,55.9,55.0,97,30.03,10.0,Calm,Calm,-,N/A,,Scattered Clouds,0,2012-10-26 09:53:00
6:53 AM,55.9,55.0,97,30.04,10.0,Calm,Calm,-,N/A,,Mostly Cloudy,0,2012-10-26 10:53:00
7:36 AM,57.2,55.4,94,30.06,10.0,Calm,Calm,-,N/A,,Mostly Cloudy,0,2012-10-26 11:36:00
7:53 AM,57.0,55.9,96,30.06,10.0,Calm,Calm,-,N/A,,Mostly Cloudy,0,2012-10-26 11:53:00
8:14 AM,57.2,57.2,100,30.07,8.0,Calm,Calm,-,N/A,,Mostly Cloudy,0,2012-10-26 12:14:00
8:53 AM,60.1,57.9,93,30.07,10.0,Calm,Calm,-,N/A,,Mostly Cloudy,0,2012-10-26 12:53:00
9:20 AM,60.8,59.0,94,30.09,10.0,Calm,Calm,-,N/A,,Mostly Cloudy,0,2012-10-26 13:20:00
9:53 AM,62.1,59.0,90,30.08,10.0,Calm,Calm,-,N/A,,Mostly Cloudy,0,2012-10-26 13:53:00
10:53 AM,66.2,60.8,83,30.09,10.0,Calm,Calm,-,N/A,,Mostly Cloudy,0,2012-10-26 14:53:00
11:47 AM,71.6,60.8,69,30.09,10.0,Calm,Calm,-,N/A,,Mostly Cloudy,0,2012-10-26 15:47:00
11:53 AM,71.1,61.0,70,30.07,10.0,Calm,Calm,-,N/A,,Mostly Cloudy,0,2012-10-26 15:53:00
12:53 PM,73.0,61.0,66,30.05,10.0,Calm,Calm,-,N/A,,Mostly Cloudy,0,2012-10-26 16:53:00
1:53 PM,75.9,60.1,58,30.01,10.0,Calm,Calm,-,N/A,,Scattered Clouds,0,2012-10-26 17:53:00
2:53 PM,78.1,60.1,54,29.98,10.0,West,3.5,-,N/A,,Scattered Clouds,270,2012-10-26 18:53:00
3:53 PM,80.1,60.1,50,29.95,10.0,Variable,5.8,-,N/A,,Scattered Clouds,0,2012-10-26 19:53:00
4:53 PM,80.1,57.0,45,29.93,10.0,Calm,Calm,-,N/A,,Scattered Clouds,0,2012-10-26 20:53:00
5:53 PM,80.1,55.9,43,29.91,10.0,Calm,Calm,-,N/A,,Scattered Clouds,0,2012-10-26 21:53:00
6:53 PM,73.0,59.0,61,29.93,10.0,Calm,Calm,-,N/A,,Scattered Clouds,0,2012-10-26 22:53:00
7:53 PM,71.1,61.0,70,29.94,10.0,Calm,Calm,-,N/A,,Scattered Clouds,0,2012-10-26 23:53:00
8:53 PM,71.1,61.0,70,29.94,10.0,NNE,3.5,-,N/A,,Mostly Cloudy,20,2012-10-27 00:53:00
9:53 PM,68.0,61.0,78,29.95,10.0,NNW,3.5,-,N/A,,Mostly Cloudy,330,2012-10-27 01:53:00
10:53 PM,68.0,60.1,76,29.95,10.0,NNW,5.8,-,N/A,,Mostly Cloudy,330,2012-10-27 02:53:00
11:53 PM,64.9,57.9,78,29.95,10.0,NW,5.8,-,N/A,,Overcast,310,2012-10-27 03:53:00